RH
100 100 100 99 76 62 52 80 61 65 49 30 28 26 23 28 26 21 20 43 55 86 99 91 60 40 36 24 20 17 18 19 18 16 14 16 16 17 15 14 14 13 13 13 12 12 13 14 16
100 100 100 88 73 50 52 86 80 83 59 29 17 36 31 26 26 32 26 22 31 58 63 64 52 45 38 23 19 18 18 15 15 14 14 14 13 12 12 12 13 15 15 14 15 15 16 17 17
75 96 100 100 100 65 39 34 41 92 85 45 32 50 61 47 40 37 29 28 29 32 38 46 48 46 45 32 23 20 15 15 17 16 15 14 13 13 12 12 13 15 18 18 18 20 19 20 20
61 67 88 90 100 61 47 75 58 53 90 83 67 73 74 68 65 67 52 43 33 28 31 43 36 51 49 24 27 29 19 20 20 18 17 15 13 12 12 13 16 20 22 22 21 24 28 25 23
69 74 95 100 100 100 68 62 62 39 66 100 100 100 100 92 86 56 71 80 44 42 40 44 48 67 41 28 31 23 21 23 23 21 17 14 12 15 18 19 25 29 32 29 25 24 39 44 33
37 66 95 100 100 92 58 70 66 49 100 100 69 63 60 79 77 56 74 87 59 46 58 76 80 72 42 30 27 24 24 26 24 22 17 15 13 16 20 27 29 36 31 26 23 22 29 50 60
38 75 79 100 100 82 96 61 60 53 55 58 45 73 76 61 67 75 99 100 71 56 58 82 97 81 47 38 32 27 27 31 25 20 18 17 18 17 20 22 22 25 25 23 24 25 31 35 52
51 95 100 100 98 84 68 62 49 59 56 47 34 39 60 86 93 100 100 100 85 52 54 56 100 84 58 46 32 28 31 30 24 21 18 22 22 21 20 21 24 24 25 25 25 34 42 44 53
72 85 100 87 76 97 89 91 64 53 59 51 40 26 25 28 28 34 66 94 99 69 61 66 100 95 70 52 38 30 33 39 34 24 22 22 24 25 20 21 20 20 21 23 29 29 40 59 73
100 100 100 93 100 88 69 84 75 49 44 39 26 18 19 22 26 24 25 31 49 51 57 64 100 100 77 60 40 36 38 43 46 35 23 23 23 30 27 25 21 20 18 21 27 35 36 56 72
100 100 100 90 100 81 51 46 42 37 28 29 22 14 13 18 20 23 21 24 47 30 55 68 100 100 100 78 54 44 52 52 52 41 27 24 29 36 39 31 37 20 18 19 22 24 26 27 39
100 100 93 86 79 60 38 36 33 23 18 14 17 21 16 11 12 17 24 22 29 37 54 80 100 100 100 100 87 62 65 68 60 48 30 26 50 63 78 77 54 38 22 23 17 19 25 25 26
100 100 100 91 76 72 52 42 30 21 16 17 18 27 24 17 21 44 99 22 22 35 42 55 74 99 100 100 100 91 86 88 88 73 36 28 26 100 94 61 67 51 39 35 30 24 26 26 27
100 100 82 85 50 47 28 30 27 24 19 20 22 29 34 32 24 63 89 94 30 66 84 64 82 83 98 100 100 100 100 100 100 67 48 32 47 100 62 76 100 83 71 71 59 44 41 33 30
100 100 100 100 64 45 38 30 35 26 22 22 25 32 35 34 39 44 44 63 88 75 81 66 54 44 75 100 100 100 100 99 75 62 49 50 49 67 98 97 87 100 99 83 80 66 58 43 36
95 99 97 89 79 56 50 35 30 28 26 26 28 33 34 50 57 50 46 45 38 41 72 77 100 100 100 100 100 95 85 77 100 100 90 81 86 100 95 94 100 99 100 99 94 84 73 73 73
69 76 78 79 63 58 51 34 34 32 35 35 30 33 46 61 65 73 77 51 40 43 31 26 50 77 85 74 88 92 100 100 100 100 100 100 69 41 74 91 71 64 59 98 99 78 86 100 85
49 53 48 51 54 56 62 49 40 35 41 48 48 45 45 48 62 83 92 92 83 64 51 56 40 26 22 26 41 66 76 81 71 77 88 62 57 56 40 42 35 37 32 51 64 88 92 100 97
43 50 70 68 74 84 78 79 78 64 51 49 65 76 72 82 100 100 100 100 100 96 97 86 79 48 30 29 25 23 19 31 40 42 43 37 44 62 66 82 77 94 65 53 58 63 81 56 54
56 69 71 80 88 75 100 91 98 98 86 73 78 84 86 88 74 98 100 100 100 100 100 100 96 88 79 59 39 50 45 33 27 50 65 69 87 76 100 88 92 100 95 100 94 93 94 71 58
70 71 84 80 79 68 65 100 100 100 100 97 98 100 99 90 55 73 48 77 95 100 100 100 100 100 100 100 100 98 92 81 84 76 86 96 99 100 96 93 90 100 100 100 91 75 69 67 82
90 100 94 61 64 73 78 46 100 100 100 100 100 100 99 86 72 70 67 99 100 98 89 68 41 53 92 96 98 94 100 99 68 67 94 100 100 100 99 100 94 88 61 58 60 52 64 82 78
84 97 100 98 85 100 100 100 57 100 58 58 97 100 100 61 48 88 100 89 77 95 96 75 42 32 74 90 97 78 63 54 51 72 42 39 81 89 86 88 78 67 56 53 46 49 46 44 60
100 79 99 100 100 100 100 100 67 97 100 98 64 60 75 99 82 60 64 92 100 98 84 87 87 72 70 81 78 90 95 95 87 75 74 57 35 49 56 58 59 60 65 63 60 53 56 74 72
100 100 99 100 100 97 100 100 77 100 92 69 90 100 99 76 65 85 68 78 72 99 100 100 99 100 100 88 66 55 73 78 72 88 100 93 76 72 72 49 68 70 72 64 48 45 46 60 68
100 100 91 82 99 94 100 100 100 100 100 100 100 98 99 100 100 100 100 100 100 100 100 99 100 100 100 90 85 57 75 100 92 79 80 72 63 51 67 68 78 81 52 52 46 44 43 58 73
100 100 99 100 97 66 98 100 100 100 100 100 100 99 100 100 100 89 100 100 100 100 100 100 100 100 99 87 76 65 90 100 100 99 81 93 85 70 70 81 100 91 73 66 62 51 51 48 47
100 100 100 100 99 100 100 100 99 100 97 96 89 99 98 83 99 100 99 86 90 100 100 100 94 84 73 66 71 83 100 100 100 87 100 100 82 83 85 97 98 97 68 71 75 55 62 68 71
72 80 88 86 72 89 83 91 88 87 100 100 92 65 71 78 69 93 93 95 95 90 92 92 90 78 69 69 83 83 100 100 96 100 100 100 100 81 83 90 100 85 71 74 88 98 100 100 85
67 78 60 68 83 79 64 60 74 70 82 83 72 74 84 86 92 97 100 100 100 100 100 99 100 96 97 100 100 99 100 98 93 100 100 100 100 100 92 86 100 100 78 95 100 100 93 71 60
Wind_Speed
33 30 29 33 38 39 37 29 26 34 35 28 26 24 21 21 23 26 27 37 35 33 39 37 37 39 42 45 46 45 42 39 42 42 42 43 43 44 45 44 44 43 43 40 40 41 44 48 54
30 34 34 35 38 39 31 26 29 33 35 31 27 28 23 23 23 28 29 32 38 38 39 40 39 41 40 42 42 40 36 35 35 34 37 39 42 42 45 47 47 46 44 43 42 42 41 42 43
40 35 33 38 43 43 34 31 34 34 35 37 31 30 31 29 28 27 30 33 38 41 43 42 41 42 43 44 42 39 37 37 41 40 39 41 45 44 46 49 49 48 45 43 43 42 40 40 41
42 39 37 41 50 45 38 34 35 38 35 38 38 35 35 37 36 36 36 35 37 41 45 43 42 42 44 43 43 41 40 41 40 42 41 42 43 45 47 48 49 47 46 45 42 41 39 38 38
44 43 38 46 51 46 41 35 35 37 38 35 38 39 40 40 40 39 41 43 43 43 43 42 42 43 42 41 40 38 39 40 38 40 41 39 39 39 39 41 42 45 46 44 43 42 40 37 36
45 43 39 46 52 47 40 38 35 32 33 32 40 45 44 43 45 43 41 45 45 43 40 40 42 42 41 41 37 40 41 40 39 42 40 39 40 40 38 38 39 41 43 45 46 45 41 40 38
42 42 42 44 47 43 44 44 38 33 37 38 42 45 49 47 47 47 45 46 45 40 41 39 43 41 42 39 38 38 40 40 37 39 40 35 31 32 34 35 37 40 39 39 41 41 42 42 42
38 35 43 49 49 46 48 46 42 40 43 42 42 44 47 50 46 47 46 47 47 45 42 43 41 39 39 39 38 39 38 37 36 35 36 30 27 30 33 34 37 39 43 42 39 38 39 40 40
38 38 47 47 45 46 47 45 45 46 44 41 41 47 48 51 51 50 52 51 50 50 44 39 38 36 39 38 38 40 42 39 37 38 35 34 32 31 29 26 29 31 38 40 40 39 37 35 36
37 45 51 46 46 44 40 43 41 38 40 43 40 43 50 54 54 51 47 46 48 51 41 40 38 40 39 39 38 41 43 43 41 37 38 35 34 31 38 35 32 32 33 34 40 40 40 37 39
39 44 44 41 41 40 42 41 38 39 43 43 41 39 35 39 45 43 41 42 42 42 40 39 36 44 42 43 41 41 46 45 42 38 37 37 38 40 39 40 40 38 36 33 31 33 36 41 45
41 38 38 41 41 43 42 41 37 34 32 30 25 25 29 40 41 40 39 39 40 38 36 39 37 41 47 43 42 44 45 47 47 42 41 42 38 40 42 45 45 47 46 41 37 36 39 42 43
40 42 41 42 43 43 41 35 30 33 22 21 23 27 27 31 31 28 36 38 39 35 36 40 42 40 47 45 42 42 48 49 49 48 43 45 44 39 44 45 47 47 49 49 43 42 40 42 40
44 32 33 34 43 39 37 39 33 41 32 27 26 31 32 31 30 30 36 38 35 33 36 40 42 42 44 43 40 41 47 51 49 50 52 50 42 42 43 47 49 50 51 49 46 47 47 42 40
47 47 47 46 42 43 42 37 46 43 41 35 30 36 36 35 29 25 34 38 31 30 29 37 41 40 36 37 34 38 41 46 50 50 46 43 43 42 47 46 47 50 53 51 49 47 47 53 51
38 39 42 48 38 43 43 39 43 47 41 37 37 43 46 36 35 35 40 40 40 42 39 33 36 38 37 39 44 46 49 45 46 46 47 46 45 45 50 48 46 47 52 55 53 52 51 52 55
43 35 38 48 47 49 48 47 50 48 43 41 43 47 48 42 38 41 43 47 50 50 47 47 47 47 47 48 50 51 46 49 50 49 51 52 53 50 52 50 52 55 55 53 56 56 55 54 58
46 43 44 49 56 53 55 52 52 54 50 54 50 50 52 54 54 50 48 50 53 52 55 52 51 48 55 61 62 59 58 58 61 60 59 57 59 64 61 61 60 62 63 60 59 60 59 57 61
56 54 50 55 63 62 62 59 59 59 54 60 65 58 49 51 51 57 59 59 56 56 55 55 54 56 54 56 57 56 59 67 69 69 70 72 70 68 67 67 65 64 65 65 67 66 65 69 65
58 56 57 58 66 68 71 63 68 69 66 63 67 65 62 60 52 53 61 63 61 60 56 58 62 62 64 65 64 62 63 64 65 67 70 71 71 70 67 68 68 67 68 65 65 66 69 73 74
70 67 65 65 75 78 72 68 75 76 74 76 77 83 78 72 69 62 66 67 69 67 63 62 65 65 69 70 71 71 69 69 70 74 74 74 71 70 71 67 68 68 69 71 73 74 78 80 80
71 83 76 81 83 78 82 70 74 81 81 77 80 84 80 76 74 70 71 71 75 78 77 74 75 72 73 74 73 75 75 75 79 81 82 80 79 77 77 77 76 76 81 80 79 79 78 79 80
78 86 90 89 92 89 80 93 72 80 79 83 89 89 85 79 78 77 79 82 82 85 88 88 88 82 78 80 85 87 89 89 86 84 84 86 87 86 85 84 82 80 82 80 83 83 84 84 84
94 92 92 94 96 100 81 98 82 82 88 90 90 93 93 88 86 81 84 87 88 91 96 94 87 84 83 85 86 87 87 88 86 87 90 89 89 90 90 89 86 83 83 84 86 86 87 89 89
106 100 101 100 105 102 100 103 91 92 94 93 94 96 99 100 94 90 88 90 93 94 94 93 92 92 96 98 96 98 101 99 94 92 94 94 92 92 92 89 85 84 88 89 90 91 91 91 90
113 116 115 116 111 108 107 109 100 104 103 100 100 99 93 93 91 91 89 94 94 96 101 103 101 104 102 101 100 102 99 96 101 97 95 95 93 91 92 88 87 88 92 94 92 93 90 88 89
119 122 119 117 117 116 106 108 110 110 112 109 106 107 106 105 109 108 107 106 107 108 109 107 107 105 104 99 101 100 98 93 91 93 94 91 91 93 91 91 92 94 95 94 94 91 88 88 89
117 114 120 119 121 121 118 118 121 121 121 117 115 113 112 112 112 111 111 112 114 115 115 110 110 111 108 104 100 96 92 93 94 94 95 97 93 90 91 95 99 103 98 99 100 96 93 96 99
128 124 124 128 128 122 120 123 122 123 124 126 120 118 118 118 116 116 113 114 115 115 115 112 112 112 107 99 92 90 89 89 89 92 96 98 99 99 96 100 101 101 100 101 102 99 102 106 110
132 128 129 129 127 127 124 123 121 122 122 119 120 114 111 111 110 108 107 106 108 109 108 106 103 103 99 94 92 91 89 88 88 88 96 100 106 105 100 100 102 103 105 104 105 107 113 113 112
Wind_Direction
272 267 268 274 281 277 285 291 279 287 293 283 277 276 273 278 276 270 259 249 269 272 264 289 293 296 296 294 293 292 293 290 283 284 284 284 283 285 287 286 290 291 291 293 290 286 280 274 271
267 267 269 275 276 280 281 282 281 286 291 290 292 288 293 291 283 281 275 267 270 276 279 286 290 293 295 293 295 301 298 293 293 295 294 292 291 289 288 288 287 288 290 290 291 291 288 282 278
263 267 271 272 275 276 280 281 280 286 290 290 295 298 298 297 293 292 284 279 276 275 276 279 283 287 291 291 293 295 293 295 297 298 296 294 294 288 287 286 285 285 285 285 287 287 287 285 282
265 266 273 275 269 278 280 280 279 278 278 287 290 293 293 291 292 291 290 295 286 279 274 276 275 285 289 293 291 289 290 293 295 297 303 298 293 293 285 285 283 284 284 283 281 281 281 282 282
264 265 266 271 269 271 274 277 280 278 277 279 284 284 284 284 285 289 287 288 293 286 278 277 271 279 285 288 291 288 289 296 296 300 300 300 299 296 290 289 288 286 286 285 282 281 278 278 278
262 264 263 268 265 269 274 279 278 275 274 273 281 281 281 283 283 284 284 284 290 286 278 278 280 275 281 282 285 286 291 296 299 302 301 299 299 297 297 296 292 287 286 288 286 281 277 274 274
264 261 259 262 264 269 272 274 273 264 266 270 274 278 278 279 281 283 281 282 284 284 277 279 280 272 278 280 280 283 286 294 296 299 304 299 299 301 300 300 297 292 292 288 286 284 279 276 274
258 256 258 258 262 268 273 275 271 266 265 266 275 277 277 279 277 278 276 275 281 283 283 276 277 270 276 279 278 279 284 293 295 299 301 293 303 302 298 300 302 298 295 292 288 285 283 280 277
254 252 258 262 268 270 272 268 273 273 268 267 271 274 277 281 280 279 279 274 274 279 284 279 270 267 275 276 272 272 276 285 295 298 300 291 296 301 309 309 307 308 298 293 290 287 282 281 279
260 258 256 262 265 268 268 264 265 270 267 267 273 274 276 282 287 286 281 278 273 276 277 271 273 264 272 274 266 267 273 277 288 295 294 291 291 297 296 299 304 304 313 302 295 290 286 283 281
257 253 257 260 260 260 263 261 260 266 271 277 276 271 275 279 280 284 285 278 271 271 268 270 283 260 267 270 265 260 269 277 281 287 289 288 290 292 294 296 300 300 310 307 306 304 301 296 286
256 256 264 262 256 256 262 264 270 275 273 273 277 288 282 291 284 284 292 278 272 267 266 268 279 265 262 270 267 260 265 272 277 285 290 289 294 293 293 298 302 305 303 307 299 310 299 303 293
250 259 266 269 264 263 263 267 268 265 263 276 269 291 303 303 295 289 302 279 270 267 270 268 273 271 266 273 263 263 267 272 277 280 285 289 283 290 295 301 305 306 307 306 301 296 309 300 301
252 254 259 269 272 266 259 274 279 266 266 271 268 281 300 305 304 293 296 300 279 280 283 276 278 275 272 271 269 265 268 275 277 286 287 288 283 290 293 299 302 301 300 299 298 300 310 302 301
256 260 258 269 267 272 267 279 280 271 277 279 273 276 281 294 297 300 304 300 293 287 287 279 280 274 275 264 271 268 275 279 282 285 284 279 278 285 294 294 295 294 291 290 289 295 299 304 302
266 263 263 269 266 270 273 268 270 277 275 275 273 273 276 280 284 284 296 299 294 294 284 274 276 274 268 268 272 278 284 281 286 280 285 287 282 286 288 287 293 296 290 284 284 291 296 296 298
261 266 269 270 276 272 271 271 271 279 279 274 267 268 270 273 278 280 285 290 289 290 294 284 280 274 270 270 273 278 279 279 284 281 283 284 288 286 287 286 287 289 292 290 288 291 294 292 295
266 271 277 270 273 281 280 272 267 269 275 275 271 265 270 273 279 277 279 278 279 282 289 283 281 282 278 279 281 278 277 275 279 278 281 284 286 289 288 285 287 289 290 290 288 288 289 289 290
261 261 269 268 273 282 276 281 280 274 272 272 276 274 268 265 274 273 282 281 280 278 281 277 276 276 275 277 278 287 290 286 283 283 282 284 286 288 288 288 284 286 289 289 290 285 285 286 285
266 267 270 272 272 283 280 282 279 279 278 274 273 274 275 273 272 272 272 277 278 280 282 281 277 277 277 279 276 282 282 289 287 284 283 283 286 287 284 285 284 283 285 283 283 280 280 283 284
264 263 265 274 279 279 281 278 279 279 280 280 277 278 279 278 278 274 275 277 276 276 278 280 281 282 282 280 278 278 278 280 282 282 280 281 280 280 282 281 283 285 281 283 285 285 286 288 286
275 270 268 275 279 277 273 281 279 280 280 281 281 279 276 279 280 279 276 277 279 279 277 277 280 282 282 280 280 280 279 280 284 283 283 283 282 282 280 282 284 284 287 287 285 287 287 285 284
275 274 270 273 279 277 273 275 276 272 277 280 277 279 279 278 280 280 278 277 276 277 278 278 280 279 278 278 279 281 281 282 283 278 282 283 284 283 284 285 286 284 284 284 286 286 287 286 284
274 276 272 271 276 275 276 272 275 270 271 275 277 278 279 279 280 280 280 280 279 279 279 278 276 276 279 281 280 281 280 280 280 280 280 279 281 283 285 286 285 284 283 285 287 286 285 283 283
276 275 274 272 274 275 274 273 275 270 268 269 271 276 277 278 280 281 281 278 277 275 273 273 275 276 280 285 287 287 282 281 280 279 279 281 282 282 283 284 283 284 285 286 287 285 285 281 280
274 275 276 275 271 271 268 271 273 271 271 271 274 276 277 279 280 279 277 276 272 271 273 279 278 281 282 284 287 287 282 280 279 282 282 282 282 284 283 283 283 285 287 286 287 286 283 281 280
270 273 274 271 273 274 269 270 268 269 269 268 269 270 271 271 274 276 273 273 275 275 277 279 282 285 286 287 287 286 282 280 281 283 283 282 282 283 283 282 281 284 286 287 287 285 281 282 283
268 269 268 270 274 271 271 269 268 270 272 272 271 270 269 270 272 271 271 272 271 274 276 279 280 283 287 288 285 282 276 278 280 282 277 276 281 281 282 281 280 281 286 286 287 287 288 289 289
268 267 268 270 273 272 270 269 270 271 270 270 270 270 270 271 271 272 270 271 272 274 278 280 281 282 285 282 280 278 276 276 277 277 277 274 276 282 284 281 280 282 286 287 288 288 287 286 286
269 270 270 269 269 271 272 271 271 271 271 271 272 272 270 270 271 270 271 272 274 276 280 281 282 284 282 278 277 276 276 276 277 276 274 274 276 280 282 282 281 282 286 286 284 284 287 287 287